DW7831 Weather Reports


Display with metric or nautical units.
time (UTC)temp
F
wind
direction
speed
MPH
gust
MPH
rain 1hr
in
rain 24hr
in
rain mn
in
humidity
%
barometer
mb
20260504190008 64 248 4.0 0.0 0.00 0.00 0.00 41 1008.3
20260504184506 63 292 7.0 0.0 0.00 0.00 0.00 42 1008.5
20260504183005 63 219 8.0 0.0 0.00 0.00 0.00 41 1008.6
20260504181505 64 229 9.0 0.0 0.00 0.00 0.00 41 1008.5
20260504180003 63 237 7.0 0.0 0.00 0.00 0.00 41 1008.4
20260504174507 62 244 8.0 0.0 0.00 0.00 0.00 43 1008.6
20260504173008 62 220 6.0 0.0 0.00 0.00 0.00 43 1008.7
20260504171505 62 225 9.0 0.0 0.00 0.00 0.00 42 1008.8
20260504081544 44 203 4.0 0.0 0.00 0.00 0.00 59 1011.7
20260504050019 44 220 1.0 0.0 0.00 0.00 0.00 58 1011.7
20260504044520 44 220 1.0 0.0 0.00 0.00 0.00 58 1012.0
20260504043031 44 220 1.0 0.0 0.00 0.00 0.00 59 1012.1
20260504041511 43 214 0.0 0.0 0.00 0.00 0.00 59 1012.4
20260504040012 43 214 0.0 0.0 0.00 0.00 0.00 59 1012.4
20260504034507 42 217 1.0 0.0 0.00 0.00 0.00 59 1012.3
20260504033004 41 238 1.0 0.0 0.00 0.00 0.00 60 1012.4
20260504031602 39 240 1.0 0.0 0.00 0.00 0.00 60 1012.4
20260504030054 38 244 0.0 0.0 0.00 0.00 0.00 60 1012.3
20260504024553 37 244 0.0 0.0 0.00 0.00 0.00 61 1012.4
20260504023047 38 244 0.0 0.0 0.00 0.00 0.00 63 1012.5
20260504021543 38 244 0.0 0.0 0.00 0.00 0.00 64 1012.4
20260504020104 39 244 0.0 0.0 0.00 0.00 0.00 64 1012.3
20260504014548 40 244 0.0 0.0 0.00 0.00 0.00 64 1012.4
20260504013037 41 244 0.0 0.0 0.00 0.00 0.00 63 1012.5
20260504011526 42 244 0.0 0.0 0.00 0.00 0.00 62 1012.2
20260504010022 42 244 0.0 0.0 0.00 0.00 0.00 61 1012.0
20260504004522 43 244 0.0 0.0 0.00 0.00 0.00 59 1011.9
20260504003016 44 244 0.0 0.0 0.00 0.00 0.00 58 1011.8
20260504001512 45 244 0.0 0.0 0.00 0.00 0.00 57 1011.7
20260504000008 45 242 2.0 0.0 0.00 0.00 0.00 56 1011.8
20260503234504 46 267 2.0 0.0 0.00 0.00 0.00 55 1011.6
20260503233107 46 240 6.0 0.0 0.00 0.00 0.00 55 1011.6
20260503231558 47 252 8.0 0.0 0.00 0.00 0.00 53 1011.6
20260503230109 47 215 7.0 0.0 0.00 0.00 0.00 50 1011.5
20260503224556 48 266 2.0 0.0 0.00 0.00 0.00 49 1011.1
20260503223045 48 9 3.0 0.0 0.00 0.00 0.00 48 1011.2
20260503221539 48 232 5.0 0.0 0.00 0.00 0.00 45 1011.2
20260503220043 48 300 3.0 0.0 0.00 0.00 0.00 43 1011.1
20260503214536 48 246 3.0 0.0 0.00 0.00 0.00 42 1011.1
20260503213030 49 279 7.0 0.0 0.00 0.00 0.00 40 1011.0
20260503211525 49 254 4.0 0.0 0.00 0.00 0.00 39 1010.8
20260503210021 49 312 6.0 0.0 0.00 0.00 0.00 37 1010.9
20260503204516 50 302 5.0 0.0 0.00 0.00 0.00 34 1010.7
20260503203032 50 318 7.0 0.0 0.00 0.00 0.00 34 1011.0
20260503201507 49 288 6.0 0.0 0.00 0.00 0.00 35 1011.1
20260503200004 48 279 7.0 0.0 0.00 0.00 0.00 38 1011.1
20260503194501 47 337 6.0 0.0 0.00 0.00 0.00 39 1011.2
20260503193057 47 290 7.0 0.0 0.00 0.00 0.00 39 1011.5
20260503191553 47 340 5.0 0.0 0.00 0.00 0.00 40 1011.4